Martinsburg, WV

9:37 AM EST on November 20, 2019 (GMT -0500)
Eastern W Va Regional-Shepherd

Weather History for KMRB - September, 2019

Change the Weather History Date:

Sunday, September 22, 2019

  Actual Average Record
Temperature  
Mean Temperature 74 °F 63 °F  
Max Temperature 88 °F 74 °F 97 °F (1931)
Min Temperature 60 °F 51 °F 32 °F (1927)
Degree Days  
Heating Degree Days 0 4  
Month to date heating degree days 9 43  
Since 1 July heating degree days 10 50  
Cooling Degree Days 9 2  
Month to date cooling degree days 129 83  
Year to date cooling degree days 1180 875  
Growing Degree Days 24 (Base 50)    
Moisture  
Dew Point 64 °F    
Average Humidity 89    
Maximum Humidity 100    
Minimum Humidity 46    
Precipitation  
Precipitation 0.00 in 0.12 in 1.12 in (1975)
Month to date precipitation 0.75 2.63  
Year to date precipitation 34.27 28.87  
Sea Level Pressure  
Sea Level Pressure 30.13 in    
Wind  
Wind Speed 1 mph ()    
Max Wind Speed 13 mph    
Max Gust Speed 18 mph    
Visibility 3.7 miles    
Events Fog    
T = Trace of Precipitation, MM = Missing Value Source: Averaged Metar Reports

Daily Weather History Graph

Daily Weather History Graph

Search for Another Location

Airport or City:

Astronomy

Sep. 22, 2019 Rise Set
Actual Time 6:59 AM EDT 7:09 PM EDT
Civil Twilight 6:32 AM EDT 7:36 PM EDT
Nautical Twilight 6:01 AM EDT 8:07 PM EDT
Astronomical Twilight 5:29 AM EDT 8:39 PM EDT
Moon No Moon Rise 3:00 PM EDT (9/22)
Length of Visible Light 13h 03m
Length of Day
12h 10m
Last Quarter, 44% of the Moon is Illuminated
Sep 22
Last Quarter
Sep 28
New
Oct 5
First Quarter
Oct 13
Full
Oct 21
Last Quarter

Hourly Weather History & Observations

Time (EDT) Temp. Heat Index Dew Point Humidity Pressure Visibility Wind Dir Wind Speed Gust Speed Precip Events Conditions
12:05 AM 66.0 °F - 66.0 °F 100% 30.19 in 0.2 mi Calm Calm - N/A Fog Fog
12:34 AM 64.9 °F - 64.9 °F 100% 30.18 in 0.5 mi Calm Calm - N/A Fog Fog
12:48 AM 64.4 °F - 64.4 °F 100% 30.18 in 1.2 mi Calm Calm - N/A   Clear
12:53 AM 66.0 °F - 64.9 °F 96% 30.17 in 1.0 mi Calm Calm - N/A   Clear
1:00 AM 64.9 °F - 64.9 °F 100% 30.18 in 1.0 mi Calm Calm - N/A   Mist
1:07 AM 64.9 °F - 64.9 °F 100% 30.18 in 0.2 mi WSW 3.5 mph - N/A Fog Fog
1:17 AM 64.9 °F - 64.9 °F 100% 30.18 in 0.8 mi Calm Calm - N/A   Mist
1:53 AM 64.0 °F - 64.0 °F 100% 30.17 in 0.2 mi Calm Calm - N/A Fog Fog
2:00 AM 64.0 °F - 64.0 °F 100% 30.18 in 0.5 mi Calm Calm - N/A Fog Fog
2:03 AM 64.0 °F - 64.0 °F 100% 30.18 in 0.2 mi Calm Calm - N/A Fog Fog
2:43 AM 64.0 °F - 63.0 °F 96% 30.16 in 0.5 mi Calm Calm - N/A Fog Fog
2:53 AM 64.0 °F - 64.0 °F 100% 30.15 in 1.5 mi Calm Calm - N/A   Partly Cloudy
2:55 AM 64.0 °F - 64.0 °F 100% 30.16 in 3.0 mi Calm Calm - N/A   Clear
2:59 AM 64.0 °F - 64.0 °F 100% 30.16 in 1.8 mi Calm Calm - N/A   Partly Cloudy
3:11 AM 64.0 °F - 64.0 °F 100% 30.16 in 3.0 mi Calm Calm - N/A   Partly Cloudy
3:20 AM 64.0 °F - 63.0 °F 96% 30.16 in 1.5 mi Calm Calm - N/A   Mostly Cloudy
3:28 AM 63.0 °F - 63.0 °F 100% 30.16 in 0.5 mi Calm Calm - N/A Fog Fog
3:33 AM 63.0 °F - 63.0 °F 100% 30.16 in 1.2 mi Calm Calm - N/A   Scattered Clouds
3:48 AM 62.6 °F - 62.6 °F 100% 30.15 in 0.8 mi Calm Calm - N/A   Mist
3:53 AM 63.0 °F - 63.0 °F 100% 30.14 in 0.8 mi Calm Calm - N/A   Clear
4:27 AM 63.0 °F - 63.0 °F 100% 30.15 in 2.0 mi Calm Calm - N/A   Clear
4:34 AM 63.0 °F - 63.0 °F 100% 30.15 in 3.0 mi Calm Calm - N/A   Clear
4:41 AM 63.0 °F - 63.0 °F 100% 30.15 in 0.8 mi Calm Calm - N/A   Clear
4:51 AM 62.6 °F - 62.6 °F 100% 30.15 in 0.2 mi Calm Calm - N/A Fog Fog
4:53 AM 62.1 °F - 62.1 °F 100% 30.14 in 0.2 mi Calm Calm - N/A Fog Fog
5:42 AM 61.0 °F - 61.0 °F 100% 30.16 in 1.0 mi Calm Calm - N/A   Mist
5:47 AM 60.8 °F - 60.8 °F 100% 30.16 in 3.0 mi Calm Calm - N/A   Mostly Cloudy
5:53 AM 61.0 °F - 61.0 °F 100% 30.15 in 4.0 mi Calm Calm - N/A   Mostly Cloudy
6:10 AM 61.0 °F - 61.0 °F 100% 30.16 in 3.0 mi Calm Calm - N/A   Scattered Clouds
6:15 AM 61.0 °F - 61.0 °F 100% 30.16 in 1.8 mi Calm Calm - N/A   Mostly Cloudy
6:19 AM 61.0 °F - 61.0 °F 100% 30.16 in 0.8 mi Calm Calm - N/A   Mist
6:53 AM 61.0 °F - 61.0 °F 100% 30.16 in 0.2 mi Calm Calm - N/A Fog Fog
7:53 AM 62.1 °F - 62.1 °F 100% 30.17 in 0.2 mi Calm Calm - N/A Fog Fog
8:53 AM 64.9 °F - 64.9 °F 100% 30.17 in 0.2 mi SE 3.5 mph - N/A Fog Fog
9:06 AM 64.9 °F - 64.9 °F 100% 30.18 in 0.5 mi Calm Calm - N/A Fog Fog
9:17 AM 66.0 °F - 66.0 °F 100% 30.18 in 1.0 mi Calm Calm - N/A   Overcast
9:51 AM 69.8 °F - 66.2 °F 88% 30.18 in 6.0 mi Calm Calm - N/A   Clear
9:53 AM 69.1 °F - 66.0 °F 90% 30.17 in 7.0 mi Calm Calm - N/A   Clear
10:53 AM 75.0 °F - 68.0 °F 79% 30.16 in 10.0 mi Calm Calm - N/A   Clear
11:53 AM 80.1 °F 82.3 °F 66.9 °F 64% 30.14 in 10.0 mi South 3.5 mph - N/A   Clear
12:53 PM 84.0 °F 86.5 °F 66.9 °F 56% 30.10 in 10.0 mi Variable 4.6 mph - N/A   Clear
1:53 PM 87.1 °F 89.2 °F 66.0 °F 49% 30.07 in 10.0 mi ESE 6.9 mph - N/A   Clear
2:53 PM 87.1 °F 88.9 °F 64.9 °F 48% 30.04 in 10.0 mi SSE 5.8 mph - N/A   Partly Cloudy
3:53 PM 84.9 °F 86.6 °F 64.9 °F 51% 30.03 in 10.0 mi SSE 4.6 mph - N/A   Scattered Clouds
4:53 PM 87.1 °F 89.2 °F 66.0 °F 49% 30.02 in 10.0 mi SE 9.2 mph - N/A   Overcast
5:53 PM 86.0 °F 88.2 °F 66.0 °F 51% 30.01 in 10.0 mi SSE 9.2 mph - N/A   Clear
6:53 PM 82.0 °F 83.8 °F 64.9 °F 56% 30.01 in 10.0 mi SSE 4.6 mph - N/A   Clear
7:53 PM 79.0 °F - 64.9 °F 62% 30.01 in 10.0 mi SSE 5.8 mph - N/A   Clear
8:53 PM 75.9 °F - 64.9 °F 69% 30.01 in 10.0 mi WSW 3.5 mph - N/A   Clear
9:53 PM 73.0 °F - 64.9 °F 76% 30.01 in 10.0 mi Calm Calm - N/A   Clear
10:53 PM 69.1 °F - 64.9 °F 87% 30.00 in 10.0 mi WSW 3.5 mph - N/A   Clear
11:53 PM 68.0 °F - 64.9 °F 90% 29.98 in 9.0 mi Calm Calm - N/A   Clear